DW8790 Maspalomas ES current weather conditions

sailwx.info

Wind from 202 at 4 knots gusting 5

Air temperature 22.2° C
Dewpoint 18.0° C

Last reported at 2016-Jun-29 19:45 UTC.
Time now 2016-Jun-29 20:09 UTC

Location: N 27°46' W 015°34'.
View on Google Maps.

See reports from other nearby stations

  
Tides and Currents Weather Stations Pressure Air Temp Water Temp Dewpoint Dewpoint Depression Visibility Wind Speed Wind Dir Waves Ship Positions
date/time (UTC)wind fromknots sea level pressurealtimeterstation pressurevisibilityair tempwater tempwave heightnotes
2016-Jun-29 19:45 202 4 gusting 5 22.2
2016-Jun-29 19:40 262 2 gusting 4 22.2
2016-Jun-29 19:35 221 1 gusting 5 22.8
2016-Jun-29 19:30 235 3 gusting 6 22.8
2016-Jun-29 19:25 220 3 gusting 6 22.8
2016-Jun-29 19:20 206 2 gusting 5 22.8
2016-Jun-29 19:15 234 3 gusting 6 22.8
2016-Jun-29 19:10 221 3 gusting 6 22.8
2016-Jun-29 19:05 246 4 gusting 5 22.8
2016-Jun-29 19:00 192 4 gusting 6 22.8
2016-Jun-29 18:55 209 3 gusting 6 22.8
2016-Jun-29 18:50 243 2 gusting 6 22.8
2016-Jun-29 18:45 229 1 gusting 6 23.3
2016-Jun-29 18:40 199 3 gusting 6 23.3
2016-Jun-29 18:35 216 3 gusting 7 23.3
2016-Jun-29 18:30 235 3 gusting 5 23.3
2016-Jun-29 18:25 193 3 gusting 6 23.3
2016-Jun-29 18:20 207 3 gusting 8 23.3
2016-Jun-29 18:15 210 4 gusting 8 23.3
2016-Jun-29 18:10 217 5 gusting 7 23.3
2016-Jun-29 18:05 198 5 gusting 8 23.3
2016-Jun-29 18:00 232 4 gusting 10 23.3
2016-Jun-29 17:55 231 5 gusting 8 23.3
2016-Jun-29 17:50 244 5 gusting 8 23.3
2016-Jun-29 17:45 219 6 gusting 10 23.9
2016-Jun-29 17:35 241 4 gusting 6 23.9
2016-Jun-29 17:30 227 6 gusting 10 23.9
2016-Jun-29 17:25 218 5 gusting 10 23.9
2016-Jun-29 17:20 252 6 gusting 8 23.9
2016-Jun-29 17:15 222 5 gusting 10 23.9
2016-Jun-29 17:10 227 4 gusting 10 23.9
2016-Jun-29 17:05 245 6 gusting 8 23.9
2016-Jun-29 17:00 229 6 gusting 10 23.9
2016-Jun-29 16:55 251 6 gusting 10 23.9
2016-Jun-29 16:50 207 5 gusting 8 24.4
2016-Jun-29 16:45 236 4 gusting 10 24.4
2016-Jun-29 16:40 237 5 gusting 10 23.9
2016-Jun-29 16:35 205 5 gusting 8 23.9
2016-Jun-29 16:30 229 7 gusting 12 23.9
2016-Jun-29 16:25 229 6 gusting 10 23.9
2016-Jun-29 16:20 227 5 gusting 8 24.4
2016-Jun-29 16:15 237 6 gusting 10 23.9
2016-Jun-29 16:10 230 6 gusting 12 24.4
2016-Jun-29 16:05 227 6 gusting 11 24.4
2016-Jun-29 16:00 231 6 gusting 11 24.4
2016-Jun-29 15:55 258 6 gusting 12 24.4
2016-Jun-29 15:50 215 5 gusting 10 23.9
2016-Jun-29 15:45 239 7 gusting 12 24.4
2016-Jun-29 15:40 238 7 gusting 11 24.4
2016-Jun-29 15:35 227 6 gusting 10 24.4
2016-Jun-29 15:30 229 5 gusting 10 24.4
2016-Jun-29 15:25 233 6 gusting 11 24.4
2016-Jun-29 15:20 217 6 gusting 10 24.4
2016-Jun-29 15:15 232 6 gusting 10 25.0
2016-Jun-29 15:10 259 7 gusting 10 25.0
2016-Jun-29 15:05 246 7 gusting 12 24.4
2016-Jun-29 15:00 228 7 gusting 12 24.4
2016-Jun-29 14:55 211 6 gusting 10 24.4
2016-Jun-29 14:50 248 6 gusting 11 23.9
2016-Jun-29 14:45 241 6 gusting 10 23.9
2016-Jun-29 14:40 241 7 gusting 10 23.9
2016-Jun-29 14:35 217 6 gusting 8 24.4
2016-Jun-29 14:30 229 6 gusting 11 24.4
2016-Jun-29 14:25 251 6 gusting 11 25.0
2016-Jun-29 14:20 233 4 gusting 8 23.9
2016-Jun-29 14:15 226 6 gusting 10 24.4
2016-Jun-29 14:10 213 6 gusting 10 24.4
2016-Jun-29 14:05 227 4 gusting 7 24.4
2016-Jun-29 14:00 240 2 gusting 6 24.4
2016-Jun-29 13:55 216 6 gusting 10 24.4
2016-Jun-29 13:50 205 5 gusting 7 25.0
2016-Jun-29 13:45 249 5 gusting 7 25.0
2016-Jun-29 13:40 216 4 gusting 7 24.4
2016-Jun-29 13:35 178 4 gusting 10 23.9
2016-Jun-29 13:30 166 5 gusting 8 23.9
2016-Jun-29 13:25 207 4 gusting 6 24.4
2016-Jun-29 13:20 242 4 gusting 7 24.4
2016-Jun-29 13:15 221 4 gusting 8 23.9
2016-Jun-29 13:10 211 4 gusting 6 23.9
2016-Jun-29 13:05 232 5 gusting 10 23.9
2016-Jun-29 13:00 225 4 gusting 7 23.9
2016-Jun-29 12:55 260 5 gusting 8 23.9
2016-Jun-29 12:50 191 5 gusting 6 23.9
2016-Jun-29 12:40 214 4 gusting 10 23.9
2016-Jun-29 12:35 232 5 gusting 8 23.9
2016-Jun-29 12:30 233 5 gusting 10 23.3
2016-Jun-29 12:25 212 4 gusting 6 23.3
2016-Jun-29 12:20 228 6 gusting 11 23.3
2016-Jun-29 12:15 223 5 gusting 8 23.9
2016-Jun-29 12:10 236 5 gusting 10 23.3
2016-Jun-29 12:05 196 6 gusting 11 22.8
2016-Jun-29 12:00 218 7 gusting 12 23.3
2016-Jun-29 11:55 200 5 gusting 11 23.3
2016-Jun-29 11:50 226 5 gusting 10 23.3
2016-Jun-29 11:45 231 6 gusting 10 23.3
2016-Jun-29 11:40 220 6 gusting 11 23.3
2016-Jun-29 11:35 222 7 gusting 11 23.3
2016-Jun-29 11:30 213 4 gusting 11 23.9
2016-Jun-29 11:25 214 5 gusting 12 23.3
2016-Jun-29 11:20 222 6 gusting 10 23.3
2016-Jun-29 11:15 221 6 gusting 10 23.3
2016-Jun-29 11:10 212 5 gusting 8 23.3
2016-Jun-29 11:05 237 5 gusting 10 23.3
2016-Jun-29 11:00 233 5 gusting 10 23.3
2016-Jun-29 10:55 198 5 gusting 8 23.3
2016-Jun-29 10:50 212 5 gusting 8 23.3
2016-Jun-29 10:45 248 5 gusting 10 23.3
2016-Jun-29 10:40 212 5 gusting 8 23.3
2016-Jun-29 10:35 223 5 gusting 7 23.3
2016-Jun-29 10:30 229 4 gusting 8 23.3
2016-Jun-29 10:25 219 4 gusting 7 22.8
2016-Jun-29 10:20 211 4 gusting 10 23.3
2016-Jun-29 10:15 214 2 gusting 6 23.3
2016-Jun-29 10:10 229 4 gusting 7 22.8
2016-Jun-29 10:05 210 3 gusting 6 22.8
2016-Jun-29 10:00 222 4 gusting 7 22.8
2016-Jun-29 09:55 264 2 gusting 6 22.8
2016-Jun-29 09:50 223 4 gusting 6 22.8
2016-Jun-29 09:45 152 1 gusting 6 22.8
2016-Jun-29 09:40 191 2 gusting 6 22.8
2016-Jun-29 09:35 188 2 gusting 6 22.8
2016-Jun-29 09:30 195 1 gusting 5 22.8
2016-Jun-29 09:25 203 0 gusting 6 22.2
2016-Jun-29 09:20 195 0 gusting 6 22.2
2016-Jun-29 09:15 195 0 gusting 6 22.2
2016-Jun-29 09:10 212 0 gusting 5 22.2
2016-Jun-29 09:05 211 1 gusting 5 22.2
2016-Jun-29 09:00 211 1 gusting 4 22.2
2016-Jun-29 08:55 227 1 gusting 4 21.7
2016-Jun-29 08:50 158 2 gusting 5 21.7
2016-Jun-29 08:45 191 3 gusting 6 21.7
2016-Jun-29 08:40 200 0 gusting 2 21.7
2016-Jun-29 08:35 298 0 gusting 2 21.7
2016-Jun-29 08:30 219 0 gusting 2 21.7
2016-Jun-29 08:25 173 0 gusting 2 21.7
2016-Jun-29 08:20 173 0 gusting 2 21.7
2016-Jun-29 08:15 228 0 gusting 2 21.7
2016-Jun-29 08:10 232 2 gusting 4 21.7
2016-Jun-29 08:05 226 21.7
2016-Jun-29 08:00 226 0 gusting 2 21.7
2016-Jun-29 07:55 226 1 gusting 2 21.7
2016-Jun-29 07:50 276 21.7
2016-Jun-29 07:45 276 0 gusting 2 21.7
2016-Jun-29 07:40 150 0 gusting 2 21.7
2016-Jun-29 07:35 150 0 gusting 2 21.7
2016-Jun-29 07:30 150 21.7
2016-Jun-29 07:25 255 0 gusting 2 21.7
2016-Jun-29 07:20 255 21.7
2016-Jun-29 07:15 255 21.7
2016-Jun-29 07:10 255 21.1
2016-Jun-29 07:05 255 0 gusting 1 21.1
2016-Jun-29 07:00 255 21.1
2016-Jun-29 06:55 255 21.1
2016-Jun-29 06:50 255 20.6
2016-Jun-29 06:45 255 20.6
2016-Jun-29 06:40 255 20.6
2016-Jun-29 06:35 255 20.6
2016-Jun-29 06:30 255 20.6
2016-Jun-29 06:25 255 20.6
2016-Jun-29 06:20 255 20.6
2016-Jun-29 06:15 255 20.6
2016-Jun-29 06:10 255 20.6
2016-Jun-29 06:05 255 20.6
2016-Jun-29 06:00 255 20.6
2016-Jun-29 05:55 255 20.6
2016-Jun-29 05:50 255 20.6
2016-Jun-29 05:45 255 20.6
2016-Jun-29 05:40 255 20.6
2016-Jun-29 05:35 255 20.6
2016-Jun-29 05:30 255 20.6
2016-Jun-29 05:25 255 20.6
2016-Jun-29 05:20 255 20.6
2016-Jun-29 05:15 255 20.6
2016-Jun-29 05:10 255 20.6
2016-Jun-29 05:05 255 20.6
2016-Jun-29 05:00 255 20.6
2016-Jun-29 04:55 255 20.6
2016-Jun-29 04:50 255 20.6
2016-Jun-29 04:45 255 20.6
2016-Jun-29 04:40 255 20.6
2016-Jun-29 04:35 255 20.6
2016-Jun-29 04:30 255 20.6
2016-Jun-29 04:25 255 20.6
2016-Jun-29 04:20 255 20.6
2016-Jun-29 04:15 255 20.6
2016-Jun-29 04:10 255 20.6
2016-Jun-29 04:05 255 20.6
2016-Jun-29 04:00 255 20.6
2016-Jun-29 03:55 255 20.6
2016-Jun-29 03:50 255 20.6
2016-Jun-29 03:45 255 20.6
2016-Jun-29 03:40 255 20.6
2016-Jun-29 03:35 255 20.6
2016-Jun-29 03:30 255 20.6
2016-Jun-29 03:25 255 20.6
2016-Jun-29 03:20 255 20.6
2016-Jun-29 03:15 255 20.6
2016-Jun-29 03:10 255 20.6
2016-Jun-29 03:05 255 20.6
2016-Jun-29 03:00 255 20.6
2016-Jun-29 02:55 255 20.6
2016-Jun-29 02:50 255 0 gusting 2 20.6
2016-Jun-29 02:45 255 1 gusting 2 20.6
2016-Jun-29 02:40 261 20.6
2016-Jun-29 02:35 261 20.6
2016-Jun-29 02:30 217 0 gusting 2 20.6
2016-Jun-29 02:25 292 20.6
2016-Jun-29 02:20 292 20.6
2016-Jun-29 02:15 292 0 gusting 2 20.6
2016-Jun-29 02:10 292 20.6
2016-Jun-29 02:05 292 20.6
2016-Jun-29 02:00 292 20.6
2016-Jun-29 01:55 292 20.6
2016-Jun-29 01:50 292 20.6
2016-Jun-29 01:45 292 20.6
2016-Jun-29 01:40 292 20.6
2016-Jun-29 01:35 292 0 gusting 2 20.6
2016-Jun-29 01:30 292 0 gusting 2 21.1
2016-Jun-29 01:25 292 21.1
2016-Jun-29 01:20 292 21.1
2016-Jun-29 01:15 292 21.1
2016-Jun-29 01:10 292 21.1
2016-Jun-29 01:05 292 21.1
2016-Jun-29 01:00 292 21.1
2016-Jun-29 00:55 292 21.1
2016-Jun-29 00:50 292 0 gusting 1 21.1
2016-Jun-29 00:40 255 21.1
2016-Jun-29 00:35 255 21.1
2016-Jun-29 00:30 255 2 gusting 2 21.1
2016-Jun-29 00:25 266 2 gusting 5 21.1
2016-Jun-29 00:20 262 2 gusting 4 21.1
2016-Jun-29 00:15 256 2 gusting 5 21.1
2016-Jun-29 00:10 246 3 gusting 5 21.1
2016-Jun-29 00:05 256 2 gusting 5 21.1
2016-Jun-29 00:00 275 0 gusting 5 21.1
2016-Jun-28 23:55 233 3 gusting 5 21.1
2016-Jun-28 23:50 261 2 gusting 5 21.1
2016-Jun-28 23:45 234 4 gusting 6 21.1
2016-Jun-28 23:40 259 1 gusting 6 21.1
2016-Jun-28 23:35 251 1 gusting 5 21.1
2016-Jun-28 23:30 258 1 gusting 4 21.1
2016-Jun-28 23:25 291 1 gusting 4 21.1
2016-Jun-28 23:20 300 2 gusting 6 21.1
2016-Jun-28 23:15 284 3 gusting 8 21.1
2016-Jun-28 23:10 284 1 gusting 5 21.1
2016-Jun-28 23:05 288 4 gusting 6 21.1
2016-Jun-28 23:00 266 3 gusting 6 21.1
2016-Jun-28 22:55 263 6 gusting 7 21.1
2016-Jun-28 22:50 263 6 gusting 8 21.7
2016-Jun-28 22:45 273 5 gusting 10 21.7
2016-Jun-28 22:40 279 4 gusting 6 21.7
2016-Jun-28 22:35 268 4 gusting 7 21.7
2016-Jun-28 22:30 260 5 gusting 6 21.7
2016-Jun-28 22:25 271 2 gusting 6 21.7
2016-Jun-28 22:20 266 4 gusting 6 21.7
2016-Jun-28 22:15 292 2 gusting 6 21.7
2016-Jun-28 22:10 280 4 gusting 6 21.7
2016-Jun-28 22:05 300 4 gusting 6 21.7
2016-Jun-28 22:00 263 2 gusting 6 21.7
2016-Jun-28 21:55 295 2 gusting 6 21.7
2016-Jun-28 21:50 282 3 gusting 6 21.7
2016-Jun-28 21:45 291 3 gusting 6 21.7
2016-Jun-28 21:40 299 4 gusting 8 21.7
2016-Jun-28 21:35 281 2 gusting 6 21.7
2016-Jun-28 21:30 255 4 gusting 6 21.7
2016-Jun-28 21:25 251 4 gusting 6 21.7
2016-Jun-28 21:20 260 5 gusting 7 21.7
2016-Jun-28 21:15 258 4 gusting 8 21.7
2016-Jun-28 21:10 257 4 gusting 6 21.7
2016-Jun-28 21:05 241 3 gusting 6 21.7
2016-Jun-28 21:00 245 4 gusting 6 21.7
2016-Jun-28 20:55 251 3 gusting 6 21.7
2016-Jun-28 20:50 253 4 gusting 6 21.7
2016-Jun-28 20:45 208 3 gusting 6 21.7
2016-Jun-28 20:40 246 3 gusting 7 21.7
2016-Jun-28 20:35 228 2 gusting 6 21.7
2016-Jun-28 20:30 214 2 gusting 6 21.7
2016-Jun-28 20:25 227 4 gusting 6 21.7
2016-Jun-28 20:20 189 2 gusting 5 21.7
2016-Jun-28 20:15 215 2 gusting 6 21.7
2016-Jun-28 20:10 219 4 gusting 6 21.7
2016-Jun-28 20:05 197 2 gusting 5 21.7
2016-Jun-28 20:00 214 2 gusting 5 21.7
2016-Jun-28 19:55 212 3 gusting 6 21.1
2016-Jun-28 19:50 186 2 gusting 5 21.7
2016-Jun-28 19:45 194 1 gusting 6 21.1
2016-Jun-28 19:40 179 4 gusting 7 21.1
2016-Jun-28 19:35 172 2 gusting 7 21.7
2016-Jun-28 19:30 182 1 gusting 6 21.7
2016-Jun-28 19:25 189 3 gusting 6 21.7
2016-Jun-28 19:20 168 2 gusting 7 21.7
2016-Jun-28 19:15 140 5 gusting 8 21.7
2016-Jun-28 19:10 167 3 gusting 7 21.7
2016-Jun-28 19:05 151 2 gusting 6 21.7
2016-Jun-28 19:00 158 4 gusting 6 22.2
2016-Jun-28 18:55 161 3 gusting 7 22.2
2016-Jun-28 18:50 137 4 gusting 7 22.2
2016-Jun-28 18:45 162 4 gusting 6 22.2
2016-Jun-28 18:40 134 4 gusting 7 22.2
2016-Jun-28 18:35 150 3 gusting 6 22.8
2016-Jun-28 18:30 155 2 gusting 6 22.8
2016-Jun-28 18:25 144 2 gusting 6 22.8
2016-Jun-28 18:20 157 4 gusting 7 22.8
2016-Jun-28 18:15 207 4 gusting 6 22.8
2016-Jun-28 18:10 206 3 gusting 6 22.8
2016-Jun-28 18:05 167 5 gusting 7 22.8
2016-Jun-28 18:00 167 2 gusting 7 22.8
2016-Jun-28 17:55 207 4 gusting 10 22.8
2016-Jun-28 17:50 192 2 gusting 6 22.8
2016-Jun-28 17:45 208 4 gusting 8 23.3
2016-Jun-28 17:40 197 5 gusting 6 23.3
2016-Jun-28 17:35 191 4 gusting 8 23.3
2016-Jun-28 17:30 186 3 gusting 11 23.3
2016-Jun-28 17:25 230 2 gusting 13 23.3
2016-Jun-28 17:20 228 4 gusting 11 22.8
2016-Jun-28 17:15 217 5 gusting 10 23.3
2016-Jun-28 17:10 218 5 gusting 12 23.3
2016-Jun-28 17:05 241 6 gusting 12 22.8
2016-Jun-28 17:00 244 6 gusting 13 23.3
2016-Jun-28 16:55 227 6 gusting 10 23.3
2016-Jun-28 16:50 240 8 gusting 13 22.8
2016-Jun-28 16:45 246 7 gusting 13 22.8
2016-Jun-28 16:40 240 8 gusting 13 22.8
2016-Jun-28 16:35 230 8 gusting 13 22.8
2016-Jun-28 16:30 224 7 gusting 13 22.8
2016-Jun-28 16:25 244 8 gusting 15 22.2
2016-Jun-28 16:20 241 10 gusting 13 22.2
2016-Jun-28 16:15 215 6 gusting 11 22.8
2016-Jun-28 16:10 226 10 gusting 15 22.2
2016-Jun-28 16:05 231 7 gusting 13 22.8
2016-Jun-28 16:00 219 6 gusting 13 23.3
2016-Jun-28 15:55 209 7 gusting 15 23.3
2016-Jun-28 15:50 249 8 gusting 13 22.8
2016-Jun-28 15:45 246 9 gusting 13 22.8
2016-Jun-28 15:40 254 8 gusting 13 23.3
2016-Jun-28 15:35 242 11 gusting 15 23.3
2016-Jun-28 15:30 243 10 gusting 17 23.3
2016-Jun-28 15:25 238 8 gusting 14 23.3
2016-Jun-28 15:20 220 8 gusting 14 23.3
2016-Jun-28 15:15 228 9 gusting 15 23.3
2016-Jun-28 15:10 244 8 gusting 13 23.9
2016-Jun-28 15:05 236 8 gusting 13 23.9
2016-Jun-28 15:00 240 7 gusting 13 23.9
2016-Jun-28 14:55 232 7 gusting 13 23.9
2016-Jun-28 14:50 264 7 gusting 13 24.4
2016-Jun-28 14:45 244 6 gusting 11 23.9
2016-Jun-28 14:40 245 8 gusting 13 23.9
2016-Jun-28 14:35 235 6 gusting 12 23.9
2016-Jun-28 14:30 236 7 gusting 11 23.9
2016-Jun-28 14:25 248 6 gusting 11 23.9
2016-Jun-28 14:20 251 7 gusting 10 23.9
2016-Jun-28 14:15 229 8 gusting 13 23.9
2016-Jun-28 14:10 247 6 gusting 13 23.9
2016-Jun-28 14:05 233 6 gusting 10 23.9
2016-Jun-28 14:00 235 6 gusting 11 24.4
2016-Jun-28 13:55 256 6 gusting 10 23.9
2016-Jun-28 13:50 240 5 gusting 11 23.3
2016-Jun-28 13:45 215 7 gusting 11 23.9
2016-Jun-28 13:40 228 6 gusting 11 23.9
2016-Jun-28 13:35 246 6 gusting 10 23.9
2016-Jun-28 13:30 220 6 gusting 11 23.9
2016-Jun-28 13:25 240 6 gusting 10 23.9
2016-Jun-28 13:20 261 5 gusting 11 23.9
2016-Jun-28 13:15 238 5 gusting 10 23.9
2016-Jun-28 13:10 216 4 gusting 10 23.3
2016-Jun-28 13:05 213 6 gusting 10 23.3
2016-Jun-28 13:00 173 4 gusting 6 23.3
2016-Jun-28 12:55 205 5 gusting 12 22.8
2016-Jun-28 12:50 207 7 gusting 10 22.8
2016-Jun-28 12:40 236 5 gusting 8 22.8
2016-Jun-28 12:35 210 5 gusting 12 22.8
2016-Jun-28 12:30 200 6 gusting 12 22.8
2016-Jun-28 12:25 201 6 gusting 11 22.8
2016-Jun-28 12:20 185 6 gusting 12 22.8
2016-Jun-28 12:15 198 6 gusting 10 22.8
2016-Jun-28 12:10 167 4 gusting 8 22.8
2016-Jun-28 12:05 197 4 gusting 10 22.8
2016-Jun-28 12:00 231 6 gusting 10 22.8
2016-Jun-28 11:55 165 5 gusting 7 22.8
2016-Jun-28 11:50 164 5 gusting 8 23.3
2016-Jun-28 11:45 168 5 gusting 12 23.3
2016-Jun-28 11:40 193 5 gusting 10 23.3
2016-Jun-28 11:35 169 5 gusting 8 23.3
2016-Jun-28 11:30 161 4 gusting 8 23.3
2016-Jun-28 11:25 178 4 gusting 10 23.3
2016-Jun-28 11:20 223 5 gusting 7 23.3
2016-Jun-28 11:15 170 4 gusting 7 23.3
2016-Jun-28 11:10 187 4 gusting 10 22.8
2016-Jun-28 11:05 160 4 gusting 8 22.8
2016-Jun-28 11:00 213 6 gusting 10 23.3
2016-Jun-28 10:55 153 2 gusting 7 23.3
2016-Jun-28 10:50 213 5 gusting 7 22.8
2016-Jun-28 10:45 161 4 gusting 7 22.8
2016-Jun-28 10:40 175 5 gusting 10 22.8
2016-Jun-28 10:35 177 4 gusting 8 22.8
2016-Jun-28 10:30 205 4 gusting 10 22.8
2016-Jun-28 10:25 200 5 gusting 10 22.8
2016-Jun-28 10:20 170 4 gusting 10 22.8
2016-Jun-28 10:15 203 3 gusting 7 22.8
2016-Jun-28 10:10 225 4 gusting 8 22.8
2016-Jun-28 10:05 208 3 gusting 7 22.2
2016-Jun-28 10:00 207 4 gusting 6 22.2
2016-Jun-28 09:55 210 4 gusting 8 22.2
2016-Jun-28 09:50 214 6 gusting 8 22.2
2016-Jun-28 09:45 200 4 gusting 7 22.2
2016-Jun-28 09:40 224 5 gusting 8 22.2
2016-Jun-28 09:35 191 5 gusting 8 22.2
2016-Jun-28 09:30 255 5 gusting 7 22.2
2016-Jun-28 09:25 232 5 gusting 7 22.2
2016-Jun-28 09:20 222 5 gusting 7 22.2
2016-Jun-28 09:15 194 4 gusting 6 22.2
2016-Jun-28 09:10 217 3 gusting 6 22.2
2016-Jun-28 09:05 196 4 gusting 6 22.2
2016-Jun-28 09:00 210 2 gusting 6 21.7
2016-Jun-28 08:55 227 6 gusting 8 21.7
2016-Jun-28 08:50 226 5 gusting 7 21.7
2016-Jun-28 08:45 228 4 gusting 6 21.7
2016-Jun-28 08:40 288 1 gusting 6 21.7
2016-Jun-28 08:35 299 2 gusting 6 21.7
2016-Jun-28 08:30 289 3 gusting 6 21.7
2016-Jun-28 08:25 264 3 gusting 6 21.7
2016-Jun-28 08:20 271 4 gusting 6 21.7
2016-Jun-28 08:15 268 1 gusting 7 21.7
2016-Jun-28 08:10 296 1 gusting 4 21.7
2016-Jun-28 08:05 317 2 gusting 6 21.1
2016-Jun-28 08:00 280 1 gusting 4 21.1
2016-Jun-28 07:55 287 2 gusting 6 21.1
2016-Jun-28 07:50 252 2 gusting 6 21.1
2016-Jun-28 07:45 251 0 gusting 5 21.1
2016-Jun-28 07:40 269 2 gusting 4 21.1
2016-Jun-28 07:35 277 1 gusting 2 21.1
2016-Jun-28 07:30 261 0 gusting 2 20.6
2016-Jun-28 07:25 306 0 gusting 2 20.6
2016-Jun-28 07:20 306 20.6
2016-Jun-28 07:15 306 0 gusting 2 20.6
2016-Jun-28 07:10 306 20.6
2016-Jun-28 07:05 306 20.0
2016-Jun-28 07:00 306 20.0
2016-Jun-28 06:55 306 20.0
2016-Jun-28 06:50 306 20.0
2016-Jun-28 06:45 306 20.0
2016-Jun-28 06:40 306 0 gusting 2 20.0
2016-Jun-28 06:35 261 0 gusting 2 20.0
2016-Jun-28 06:30 261 20.0
2016-Jun-28 06:25 261 20.0
2016-Jun-28 06:20 261 20.0
2016-Jun-28 06:15 261 20.0
2016-Jun-28 06:10 261 20.0
2016-Jun-28 06:05 261 20.0
2016-Jun-28 06:00 261 20.0
2016-Jun-28 05:55 261 20.6
2016-Jun-28 05:50 261 0 gusting 2 20.6
2016-Jun-28 05:45 261 20.6
2016-Jun-28 05:40 261 20.6
2016-Jun-28 05:35 261 20.6
2016-Jun-28 05:30 261 20.6
2016-Jun-28 05:25 261 1 gusting 2 20.6
2016-Jun-28 05:20 261 1 gusting 2 20.6
2016-Jun-28 05:15 261 1 gusting 2 20.6
2016-Jun-28 05:10 282 20.6
2016-Jun-28 05:05 282 20.6
2016-Jun-28 05:00 279 2 gusting 4 20.6
2016-Jun-28 04:55 315 20.6
2016-Jun-28 04:50 315 0 gusting 2 20.6
2016-Jun-28 04:45 316 0 gusting 2 20.6
2016-Jun-28 04:40 330 0 gusting 2 20.6
2016-Jun-28 04:35 309 20.6
2016-Jun-28 04:30 309 20.6
2016-Jun-28 04:25 309 20.0
2016-Jun-28 04:20 309 20.6
2016-Jun-28 04:15 309 20.6
2016-Jun-28 04:10 309 20.6
2016-Jun-28 04:05 309 20.0
2016-Jun-28 04:00 309 20.0
2016-Jun-28 03:55 309 20.0
2016-Jun-28 03:50 309 20.0
2016-Jun-28 03:45 309 20.0
2016-Jun-28 03:40 309 20.0
2016-Jun-28 03:35 309 20.0
2016-Jun-28 03:30 309 20.0
2016-Jun-28 03:25 309 20.0
2016-Jun-28 03:20 309 20.0
2016-Jun-28 03:15 309 20.0
2016-Jun-28 03:10 309 20.0
2016-Jun-28 03:05 309 20.0
2016-Jun-28 03:00 309 20.0
2016-Jun-28 02:55 309 20.0
2016-Jun-28 02:50 309 20.0
2016-Jun-28 02:45 309 20.0
2016-Jun-28 02:40 309 20.0
2016-Jun-28 02:35 309 20.0
2016-Jun-28 02:30 309 0 gusting 2 20.0
2016-Jun-28 02:25 297 0 gusting 2 20.0
2016-Jun-28 02:20 311 1 gusting 2 20.0
2016-Jun-28 02:15 301 1 gusting 4 20.0
2016-Jun-28 02:10 301 1 gusting 2 20.0
2016-Jun-28 02:05 301 2 gusting 4 20.0
2016-Jun-28 02:00 310 20.6
2016-Jun-28 01:55 310 20.6
2016-Jun-28 01:50 310 0 gusting 2 20.6
2016-Jun-28 01:45 310 0 gusting 2 20.6
2016-Jun-28 01:40 310 0 gusting 4 20.6
2016-Jun-28 01:35 306 2 gusting 4 20.6
2016-Jun-28 01:30 319 2 gusting 4 20.6
2016-Jun-28 01:25 294 2 gusting 4 20.6
2016-Jun-28 01:20 322 2 gusting 5 20.6
2016-Jun-28 01:15 306 2 gusting 5 20.6
2016-Jun-28 01:10 315 4 gusting 6 20.6
2016-Jun-28 00:55 331 2 gusting 6 20.6
2016-Jun-28 00:50 306 4 gusting 6 20.0
2016-Jun-28 00:40 308 4 gusting 6 20.0
2016-Jun-28 00:35 313 4 gusting 6 20.0
2016-Jun-28 00:30 306 2 gusting 6 20.0
2016-Jun-28 00:25 300 4 gusting 5 20.0
2016-Jun-28 00:20 299 3 gusting 5 20.6
2016-Jun-28 00:15 293 2 gusting 5 20.6
2016-Jun-28 00:10 297 3 gusting 5 20.6
2016-Jun-28 00:05 298 3 gusting 4 20.6
2016-Jun-28 00:00 275 2 gusting 5 20.6
2016-Jun-27 23:55 292 0 gusting 2 20.6
2016-Jun-27 23:50 266 1 gusting 4 20.6
2016-Jun-27 23:45 269 1 gusting 5 20.6
2016-Jun-27 23:40 280 2 gusting 5 20.6
2016-Jun-27 23:35 264 3 gusting 5 21.1
2016-Jun-27 23:30 259 2 gusting 5 21.1
2016-Jun-27 23:25 261 2 gusting 4 21.1
2016-Jun-27 23:20 294 0 gusting 2 21.1
2016-Jun-27 23:15 254 0 gusting 2 21.1
2016-Jun-27 23:10 264 2 gusting 4 21.1
2016-Jun-27 23:05 217 2 gusting 5 21.1
2016-Jun-27 23:00 232 21.1
2016-Jun-27 22:55 196 21.1
2016-Jun-27 22:50 239 21.1
2016-Jun-27 22:45 112 21.1
2016-Jun-27 22:40 107 21.1
2016-Jun-27 22:35 107 21.1
2016-Jun-27 22:30 107 21.1
2016-Jun-27 22:25 107 0 gusting 4 21.1
2016-Jun-27 22:20 155 21.1
2016-Jun-27 22:15 155 21.1
2016-Jun-27 22:10 155 21.1
2016-Jun-27 22:05 155 21.1
2016-Jun-27 22:00 162 1 gusting 2 21.1
2016-Jun-27 21:55 189 21.1
2016-Jun-27 21:50 189 21.1
2016-Jun-27 21:45 189 21.1
2016-Jun-27 21:40 189 21.1
2016-Jun-27 21:35 189 21.1
2016-Jun-27 21:30 189 21.1
2016-Jun-27 21:25 189 21.1
2016-Jun-27 21:20 189 21.1
2016-Jun-27 21:15 250 0 gusting 2 21.1
2016-Jun-27 21:10 247 1 gusting 2 21.1
2016-Jun-27 21:05 258 21.7
2016-Jun-27 21:00 265 1 gusting 2 21.7
2016-Jun-27 20:55 270 1 gusting 4 21.7
2016-Jun-27 20:50 283 1 gusting 5 21.7
2016-Jun-27 20:45 291 2 gusting 4 21.7
2016-Jun-27 20:40 297 2 gusting 6 21.7
2016-Jun-27 20:35 290 3 gusting 6 21.7
2016-Jun-27 20:30 293 2 gusting 6 21.7
2016-Jun-27 20:25 289 2 gusting 6 21.7
2016-Jun-27 20:20 275 4 gusting 6 21.7
2016-Jun-27 20:15 282 3 gusting 8 21.7
2016-Jun-27 20:10 276 5 gusting 8 22.2
2016-Jun-27 20:05 255 5 gusting 8 22.2
2016-Jun-27 20:00 277 5 gusting 10 22.2